FW8716 Weather Reports


Display with metric or nautical units.
time (UTC)temp
F
wind
direction
speed
MPH
gust
MPH
rain 1hr
in
rain 24hr
in
rain mn
in
humidity
%
barometer
mb
20260510230519 53 219 3.0 13.0 0.00 0.17 0.16 44 1012.2
20260510230036 53 180 2.0 18.0 0.00 0.17 0.16 44 1012.1
20260510225519 54 251 3.0 18.0 0.00 0.17 0.16 44 1012.0
20260510225025 54 179 3.0 16.0 0.00 0.17 0.16 43 1011.9
20260510224538 54 184 2.0 11.0 0.00 0.17 0.16 42 1011.9
20260510224019 54 169 2.0 14.0 0.00 0.17 0.16 44 1011.8
20260510223523 54 171 5.0 14.0 0.00 0.17 0.16 43 1011.7
20260510223037 54 145 4.0 10.0 0.00 0.17 0.16 46 1011.7
20260510222519 53 175 2.0 11.0 0.00 0.17 0.16 47 1011.6
20260510222023 53 155 3.0 11.0 0.00 0.17 0.16 49 1011.6
20260510221539 53 253 3.0 14.0 0.00 0.17 0.16 48 1011.6
20260510221022 53 174 3.0 14.0 0.00 0.17 0.16 49 1011.5
20260510220522 53 158 3.0 14.0 0.00 0.17 0.16 50 1011.6
20260510220036 53 167 2.0 12.0 0.00 0.17 0.16 52 1011.5
20260510215518 54 148 2.0 12.0 0.00 0.18 0.16 52 1011.4
20260510215022 54 219 1.0 12.0 0.00 0.18 0.16 52 1011.5
20260510214540 54 161 3.0 12.0 0.00 0.18 0.16 53 1011.4
20260510214018 54 156 2.0 9.0 0.00 0.18 0.16 53 1011.3
20260510213525 54 130 2.0 12.0 0.00 0.18 0.16 56 1011.2
20260510213047 54 173 1.0 12.0 0.00 0.18 0.16 56 1011.3
20260510212519 54 177 3.0 12.0 0.00 0.18 0.16 55 1011.1
20260510212022 55 161 2.0 13.0 0.00 0.18 0.16 56 1011.2
20260510211537 56 213 2.0 13.0 0.00 0.18 0.16 55 1011.0
20260510211019 56 226 2.0 11.0 0.00 0.18 0.16 57 1011.0
20260510210519 55 230 1.0 14.0 0.00 0.18 0.16 64 1011.0
20260510210035 55 228 3.0 14.0 0.00 0.18 0.16 61 1010.9
20260510205521 55 169 3.0 10.0 0.00 0.20 0.16 61 1010.9
20260510205021 55 155 2.0 8.0 0.00 0.20 0.16 62 1010.8
20260510204545 54 179 1.0 5.0 0.00 0.20 0.16 69 1010.9
20260510204020 53 137 1.0 6.0 0.00 0.20 0.16 67 1010.9
20260510203518 53 178 2.0 6.0 0.00 0.20 0.16 71 1011.0
20260510203038 54 42 2.0 8.0 0.00 0.20 0.16 69 1010.9
20260510202518 54 305 3.0 9.0 0.00 0.20 0.16 68 1010.8
20260510202018 54 222 1.0 9.0 0.00 0.20 0.16 69 1010.8
20260510201536 54 143 1.0 9.0 0.00 0.20 0.16 68 1010.8
20260510201021 54 145 2.0 9.0 0.00 0.20 0.16 68 1010.9
20260510200523 54 139 2.0 8.0 0.00 0.20 0.16 69 1010.9
20260510200035 54 170 1.0 9.0 0.00 0.20 0.16 74 1011.0
20260510195518 53 0 2.0 9.0 0.00 0.24 0.16 73 1011.0
20260510195019 53 173 2.0 9.0 0.01 0.24 0.16 73 1011.1
20260510194534 53 144 2.0 9.0 0.01 0.24 0.16 76 1011.2
20260510194020 53 157 1.0 9.0 0.01 0.24 0.16 79 1011.2
20260510193520 52 179 3.0 9.0 0.01 0.24 0.16 77 1011.3
20260510193035 52 133 1.0 9.0 0.01 0.24 0.16 78 1011.3
20260510192521 52 161 0.0 8.0 0.01 0.24 0.16 80 1011.4
20260510192020 51 155 2.0 8.0 0.01 0.24 0.16 80 1011.2
20260510191535 51 169 3.0 9.0 0.01 0.24 0.16 79 1011.3
20260510191021 51 149 3.0 17.0 0.01 0.24 0.16 80 1011.3
20260510190519 51 155 3.0 17.0 0.01 0.24 0.16 79 1011.3
20260510190041 52 161 2.0 8.0 0.01 0.24 0.16 81 1011.3
20260510185520 52 171 2.0 8.0 0.01 0.26 0.16 79 1011.3
20260510185022 52 139 3.0 12.0 0.00 0.25 0.15 80 1011.1
20260510184536 51 217 2.0 12.0 0.00 0.25 0.15 81 1011.1
20260510184019 51 168 4.0 11.0 0.00 0.25 0.15 82 1011.2
20260510183520 50 182 2.0 11.0 0.00 0.25 0.15 82 1011.3
20260510183043 50 156 2.0 7.0 0.00 0.25 0.15 82 1011.2
20260510182519 49 231 3.0 8.0 0.00 0.25 0.15 81 1011.2
20260510182018 50 142 2.0 10.0 0.00 0.25 0.15 84 1011.3
20260510181544 50 158 1.0 10.0 0.00 0.25 0.15 83 1011.2
20260510181021 50 301 2.0 9.0 0.00 0.25 0.15 85 1011.3
20260510180521 49 0 2.0 9.0 0.00 0.25 0.15 84 1011.2
20260510180040 49 163 2.0 9.0 0.00 0.25 0.15 86 1011.2
20260510175520 48 178 1.0 9.0 0.00 0.28 0.15 86 1011.1
20260510175022 48 161 1.0 12.0 0.00 0.28 0.15 88 1011.1
20260510174543 48 147 2.0 12.0 0.00 0.28 0.15 89 1011.2
20260510174020 48 198 2.0 10.0 0.00 0.28 0.15 89 1011.2
20260510173520 48 174 1.0 12.0 0.00 0.28 0.15 90 1011.1
20260510173036 48 139 1.0 12.0 0.00 0.28 0.15 90 1011.2
20260510172520 48 211 3.0 11.0 0.00 0.28 0.15 91 1011.1
20260510172019 48 199 2.0 8.0 0.00 0.28 0.15 91 1011.2
20260510171536 48 222 2.0 10.0 0.00 0.28 0.15 91 1011.1
20260510171019 48 142 3.0 13.0 0.00 0.28 0.15 91 1011.1
20260510170520 48 150 2.0 13.0 0.01 0.28 0.15 90 1011.1
20260510170035 48 169 3.0 9.0 0.01 0.28 0.15 90 1011.1
20260510165522 48 148 1.0 8.0 0.02 0.32 0.15 91 1011.1
20260510165018 48 100 3.0 8.0 0.02 0.32 0.15 91 1011.1
20260510164550 47 180 1.0 9.0 0.02 0.32 0.15 92 1011.0
20260510164019 47 175 1.0 11.0 0.03 0.32 0.15 92 1011.1
20260510163519 47 158 3.0 14.0 0.03 0.32 0.15 91 1011.1
20260510163034 48 261 3.0 14.0 0.03 0.32 0.15 90 1011.2
20260510162520 48 180 3.0 12.0 0.03 0.32 0.15 90 1011.0
20260510162019 48 277 3.0 7.0 0.03 0.32 0.15 90 1011.0
20260510161540 47 144 2.0 10.0 0.03 0.32 0.15 90 1010.9
20260510161021 47 279 2.0 10.0 0.03 0.32 0.15 90 1010.9
20260510160520 47 169 3.0 9.0 0.02 0.31 0.14 90 1010.9
20260510160037 47 153 2.0 12.0 0.02 0.31 0.14 90 1010.9
20260510155518 47 161 4.0 12.0 0.02 0.30 0.13 90 1010.8
20260510155021 47 190 3.0 12.0 0.03 0.30 0.13 90 1010.8
20260510154537 47 169 4.0 11.0 0.04 0.29 0.12 89 1010.7
20260510154019 47 167 4.0 14.0 0.08 0.29 0.12 89 1010.8
20260510153519 47 180 5.0 14.0 0.11 0.29 0.12 88 1010.8
20260510153044 47 136 4.0 12.0 0.12 0.29 0.12 88 1010.9
20260510152522 47 138 2.0 9.0 0.12 0.29 0.12 88 1010.8
20260510152020 48 144 2.0 9.0 0.12 0.29 0.12 89 1010.9
20260510151536 48 151 2.0 11.0 0.12 0.29 0.12 87 1010.6
20260510151021 48 145 3.0 11.0 0.12 0.29 0.12 88 1010.6
20260510150520 47 255 2.0 14.0 0.12 0.29 0.12 90 1010.6
20260510150035 47 93 2.0 14.0 0.12 0.29 0.12 91 1010.6
20260510145523 47 130 4.0 14.0 0.10 0.27 0.10 91 1010.7
20260510145019 48 298 3.0 18.0 0.10 0.27 0.10 91 1010.8
20260510144547 48 173 5.0 18.0 0.08 0.25 0.08 91 1010.8
20260510144020 49 173 1.0 6.0 0.03 0.20 0.03 90 1010.8
20260510143519 49 138 2.0 7.0 0.01 0.18 0.01 89 1010.1
20260510143038 49 161 0.0 7.0 0.00 0.17 0.00 89 1010.1
20260510142522 49 159 2.0 7.0 0.00 0.17 0.00 89 1010.2
20260510142021 49 148 0.0 8.0 0.00 0.17 0.00 90 1010.1
20260510141535 49 0 1.0 8.0 0.00 0.17 0.00 90 1010.0
20260510141024 49 105 2.0 8.0 0.00 0.17 0.00 90 1010.0
20260510140519 49 129 2.0 5.0 0.00 0.17 0.00 89 1010.0
20260510140035 50 131 0.0 7.0 0.00 0.17 0.00 89 1010.1
20260510135521 50 0 1.0 7.0 0.00 0.17 0.00 88 1010.0
20260510135021 50 115 1.0 7.0 0.00 0.17 0.00 89 1009.9
20260510134544 50 99 1.0 6.0 0.00 0.17 0.00 89 1009.9
20260510134018 50 127 1.0 7.0 0.00 0.17 0.00 87 1010.0
20260510133521 50 80 3.0 7.0 0.00 0.17 0.00 86 1010.0
20260510133034 50 178 1.0 10.0 0.00 0.17 0.00 84 1010.0
20260510132521 50 163 3.0 12.0 0.00 0.17 0.00 85 1010.1
20260510132022 50 187 4.0 12.0 0.00 0.17 0.00 84 1010.1
20260510131534 50 120 3.0 10.0 0.00 0.17 0.00 84 1010.1
20260510131019 50 153 1.0 10.0 0.00 0.17 0.00 84 1010.0
20260510130519 50 123 2.0 7.0 0.00 0.17 0.00 85 1010.1
20260510130033 50 155 1.0 12.0 0.00 0.17 0.00 85 1010.1
20260510125520 49 160 3.0 12.0 0.00 0.17 0.00 87 1009.9
20260510125023 49 0 1.0 8.0 0.00 0.17 0.00 87 1009.7
20260510124539 49 275 3.0 12.0 0.00 0.17 0.00 86 1009.3
20260510124022 49 183 3.0 12.0 0.00 0.17 0.00 87 1009.6
20260510123520 49 177 4.0 12.0 0.00 0.17 0.00 86 1009.6
20260510123035 49 143 3.0 9.0 0.00 0.17 0.00 87 1009.5
20260510122522 49 112 2.0 9.0 0.00 0.17 0.00 89 1009.6
20260510122023 48 0 3.0 8.0 0.00 0.17 0.00 90 1009.9
20260510121534 48 87 2.0 8.0 0.00 0.17 0.00 91 1009.9
20260510121025 47 0 1.0 4.0 0.00 0.17 0.00 92 1010.0
20260510120524 47 155 0.0 6.0 0.00 0.17 0.00 92 1009.8
20260510120041 47 0 1.0 6.0 0.00 0.17 0.00 93 1009.8
20260510115519 46 181 2.0 7.0 0.00 0.17 0.00 95 1009.7
20260510115021 45 163 1.0 8.0 0.00 0.17 0.00 95 1009.8
20260510114537 45 71 2.0 8.0 0.00 0.17 0.00 94 1009.7
20260510114021 44 92 2.0 8.0 0.00 0.17 0.00 94 1009.6
20260510113522 44 102 1.0 7.0 0.00 0.17 0.00 94 1009.5
20260510113037 44 294 0.0 3.0 0.00 0.17 0.00 94 1009.5
20260510112519 45 0 0.0 3.0 0.00 0.17 0.00 93 1009.3
20260510112019 45 0 0.0 4.0 0.00 0.17 0.00 92 1009.3
20260510111538 45 0 0.0 4.0 0.00 0.17 0.00 92 1009.0
20260510111018 46 294 0.0 8.0 0.00 0.17 0.00 90 1008.9
20260510110524 46 236 0.0 9.0 0.00 0.17 0.00 89 1009.0
20260510110039 47 149 2.0 9.0 0.00 0.17 0.00 88 1009.0
20260510105519 47 175 2.0 8.0 0.00 0.17 0.00 88 1008.9
20260510105019 47 0 0.0 8.0 0.00 0.17 0.00 88 1008.9
20260510104534 47 0 2.0 8.0 0.00 0.17 0.00 87 1008.7
20260510104022 47 185 1.0 8.0 0.00 0.17 0.00 86 1008.6
20260510103521 47 169 2.0 8.0 0.00 0.17 0.00 86 1008.7
20260510103044 46 165 1.0 9.0 0.00 0.17 0.00 86 1008.6
20260510102525 46 163 1.0 9.0 0.00 0.17 0.00 87 1008.6
20260510102021 46 157 2.0 7.0 0.00 0.17 0.00 87 1008.6
20260510101539 46 169 1.0 7.0 0.00 0.17 0.00 87 1008.4
20260510101019 46 155 1.0 7.0 0.00 0.17 0.00 87 1008.2
20260510100522 46 161 1.0 5.0 0.00 0.17 0.00 87 1008.2
20260510100047 46 136 1.0 8.0 0.00 0.17 0.00 86 1008.0
20260510095520 47 173 2.0 8.0 0.00 0.17 0.00 85 1007.9
20260510095018 47 176 2.0 8.0 0.00 0.17 0.00 86 1007.9
20260510094544 47 173 2.0 6.0 0.00 0.17 0.00 86 1007.9
20260510094019 46 144 2.0 7.0 0.00 0.17 0.00 86 1007.9
20260510093519 46 173 2.0 7.0 0.00 0.17 0.00 88 1007.8
20260510093035 46 174 1.0 7.0 0.00 0.17 0.00 90 1007.7
20260510092523 45 246 1.0 8.0 0.00 0.17 0.00 91 1007.7
20260510092018 45 148 1.0 8.0 0.00 0.17 0.00 92 1007.6
20260510091535 45 154 0.0 6.0 0.00 0.17 0.00 93 1007.4
20260510091019 45 148 1.0 7.0 0.00 0.17 0.00 95 1007.5
20260510090519 45 152 2.0 8.0 0.00 0.17 0.00 96 1007.5
20260510090036 45 153 1.0 8.0 0.00 0.17 0.00 97 1007.7
20260510085519 44 0 1.0 7.0 0.00 0.17 0.00 97 1007.5
20260510085022 44 146 1.0 8.0 0.00 0.17 0.00 97 1007.4
20260510084549 44 163 3.0 10.0 0.00 0.17 0.00 97 1007.3
20260510084021 44 148 2.0 10.0 0.00 0.17 0.00 97 1007.5
20260510083521 44 161 2.0 9.0 0.00 0.17 0.00 97 1007.4
20260510083039 44 201 3.0 12.0 0.00 0.17 0.00 97 1007.6
20260510082520 44 171 3.0 12.0 0.00 0.17 0.00 97 1007.7
20260510082022 44 144 2.0 7.0 0.00 0.17 0.00 97 1007.7
20260510081536 44 161 1.0 7.0 0.00 0.17 0.00 97 1007.9
20260510081022 45 161 3.0 7.0 0.00 0.17 0.00 97 1007.9
20260510080520 45 169 1.0 7.0 0.00 0.17 0.00 97 1008.0
20260510080035 44 151 2.0 7.0 0.00 0.17 0.00 97 1008.2
20260510075522 45 153 1.0 7.0 0.00 0.17 0.00 97 1008.3
20260510075021 45 142 2.0 10.0 0.00 0.17 0.00 97 1008.2
20260510074541 45 159 2.0 10.0 0.00 0.17 0.00 97 1008.2
20260510074025 45 153 2.0 11.0 0.00 0.17 0.00 97 1008.1
20260510073523 45 162 2.0 11.0 0.00 0.17 0.00 97 1008.1
20260510073045 45 159 2.0 8.0 0.00 0.17 0.00 97 1008.1
20260510072521 44 157 2.0 8.0 0.00 0.17 0.00 98 1008.0
20260510072024 44 154 2.0 10.0 0.00 0.17 0.00 98 1008.1
20260510071544 44 142 3.0 10.0 0.00 0.17 0.00 98 1008.0
20260510071019 44 155 3.0 9.0 0.00 0.17 0.00 98 1007.9
20260510070522 44 134 2.0 9.0 0.00 0.17 0.00 98 1008.0
20260510070040 44 228 2.0 9.0 0.00 0.17 0.00 98 1007.9
20260510065518 44 142 2.0 9.0 0.00 0.17 0.00 98 1007.9
20260510065019 43 143 2.0 9.0 0.00 0.17 0.00 97 1007.8
20260510064540 43 128 1.0 5.0 0.00 0.17 0.00 98 1008.0
20260510064018 43 0 0.0 5.0 0.00 0.17 0.00 98 1008.1
20260510063522 43 0 1.0 6.0 0.00 0.17 0.00 98 1008.5
20260510063037 43 146 1.0 6.0 0.00 0.17 0.00 98 1008.3
20260510062522 43 0 2.0 6.0 0.00 0.17 0.00 98 1008.0
20260510062019 43 123 1.0 4.0 0.00 0.17 0.00 98 1007.9
20260510061537 43 101 1.0 4.0 0.00 0.17 0.00 97 1007.8
20260510061020 43 0 0.0 5.0 0.00 0.17 0.00 98 1008.1
20260510060521 43 0 1.0 6.0 0.00 0.17 0.00 98 1008.1
20260510060052 43 55 2.0 6.0 0.00 0.17 0.00 98 1008.2
20260510055519 43 0 0.0 5.0 0.00 0.17 0.00 98 1008.3
20260510055019 43 32 1.0 3.0 0.00 0.17 0.00 98 1008.1
20260510054538 43 78 1.0 5.0 0.00 0.17 0.00 98 1008.1
20260510054019 43 0 0.0 6.0 0.00 0.17 0.00 98 1008.3
20260510053519 43 113 1.0 7.0 0.00 0.17 0.00 98 1008.4
20260510053036 43 96 1.0 7.0 0.00 0.17 0.00 98 1008.5
20260510052519 43 125 2.0 7.0 0.00 0.17 0.00 97 1008.4
20260510052019 43 0 1.0 5.0 0.00 0.17 0.00 97 1008.4
20260510051541 43 0 1.0 7.0 0.00 0.17 0.00 97 1008.3
20260510051020 43 63 1.0 7.0 0.00 0.17 0.00 97 1008.3
20260510050523 43 74 2.0 7.0 0.00 0.17 0.00 97 1008.4
20260510050035 43 109 2.0 7.0 0.00 0.17 0.00 97 1008.2
20260510045520 43 47 3.0 7.0 0.00 0.17 0.00 97 1008.3
20260510045021 43 82 1.0 3.0 0.00 0.17 0.00 97 1008.3
20260510044539 43 82 0.0 2.0 0.00 0.17 0.00 97 1008.5
20260510044019 43 87 0.0 6.0 0.00 0.17 0.00 97 1008.5
20260510043519 43 87 0.0 6.0 0.00 0.17 0.00 97 1008.7
20260510043046 43 86 1.0 5.0 0.00 0.17 0.00 97 1008.6
20260510042520 43 129 1.0 8.0 0.00 0.17 0.00 97 1008.6
20260510042019 43 125 1.0 8.0 0.00 0.17 0.00 97 1008.5
20260510041552 43 134 1.0 6.0 0.00 0.17 0.00 97 1008.5
20260510041022 43 139 2.0 5.0 0.00 0.17 0.00 97 1008.3
20260510040518 43 39 2.0 7.0 0.00 0.17 0.00 97 1008.2
20260510040042 43 134 2.0 7.0 0.00 0.17 0.00 97 1008.2
20260510035522 43 108 2.0 11.0 0.00 0.17 0.17 97 1008.4
20260510035020 43 105 1.0 11.0 0.00 0.17 0.17 97 1008.4
20260510034535 43 119 4.0 11.0 0.00 0.17 0.17 97 1008.4
20260510034024 43 0 1.0 6.0 0.00 0.17 0.17 97 1008.6
20260510033521 42 103 1.0 6.0 0.00 0.17 0.17 97 1008.4
20260510033035 42 99 1.0 3.0 0.00 0.17 0.17 97 1008.5
20260510032522 42 125 0.0 8.0 0.00 0.17 0.17 97 1008.5
20260510032020 42 111 1.0 9.0 0.00 0.17 0.17 97 1008.5
20260510031534 42 0 2.0 9.0 0.00 0.17 0.17 97 1008.4
20260510031023 42 90 2.0 8.0 0.00 0.17 0.17 97 1008.5
20260510030524 42 127 3.0 8.0 0.00 0.17 0.17 97 1008.6
20260510030047 42 89 3.0 9.0 0.00 0.17 0.17 97 1008.8
20260510025519 42 138 2.0 11.0 0.00 0.17 0.17 97 1008.7
20260510025025 42 175 2.0 11.0 0.00 0.17 0.17 97 1008.8
20260510024539 42 138 3.0 10.0 0.00 0.17 0.17 97 1008.7
20260510024023 42 165 3.0 10.0 0.00 0.17 0.17 97 1008.9
20260510023521 42 117 3.0 12.0 0.00 0.17 0.17 97 1008.9
20260510023037 42 146 4.0 12.0 0.00 0.17 0.17 97 1008.8
20260510022520 42 112 5.0 12.0 0.00 0.17 0.17 97 1008.8
20260510022018 42 94 3.0 8.0 0.00 0.17 0.17 97 1008.9
20260510021535 42 175 2.0 7.0 0.00 0.17 0.17 97 1008.7
20260510021019 42 86 3.0 10.0 0.00 0.17 0.17 97 1008.8
20260510020519 42 62 2.0 10.0 0.00 0.17 0.17 97 1008.9
20260510020035 42 86 2.0 9.0 0.00 0.17 0.17 97 1008.9
20260510015522 42 69 3.0 8.0 0.00 0.17 0.17 97 1008.7
20260510015021 42 128 2.0 8.0 0.00 0.17 0.17 97 1008.9
20260510014535 42 88 2.0 8.0 0.00 0.17 0.17 97 1009.2
20260510014022 42 87 2.0 7.0 0.00 0.17 0.17 97 1009.1
20260510013522 42 0 2.0 7.0 0.00 0.17 0.17 97 1009.1
20260510013034 41 100 2.0 7.0 0.00 0.17 0.17 97 1009.1
20260510012521 41 84 2.0 6.0 0.00 0.17 0.17 97 1009.1
20260510012020 41 58 1.0 6.0 0.00 0.17 0.17 97 1009.1
20260510011538 41 126 1.0 6.0 0.00 0.17 0.17 97 1009.1
20260510011021 41 132 0.0 7.0 0.00 0.17 0.17 97 1009.1
20260510010522 41 0 1.0 7.0 0.00 0.17 0.17 97 1009.0
20260510010046 41 121 1.0 7.0 0.00 0.17 0.17 97 1009.0
20260510005521 41 35 0.0 4.0 0.00 0.17 0.17 97 1009.1
20260510005020 41 0 0.0 4.0 0.00 0.17 0.17 97 1009.1
20260510004536 41 135 1.0 7.0 0.00 0.17 0.17 97 1008.9
20260510004022 41 132 1.0 7.0 0.00 0.17 0.17 97 1008.7
20260510003521 41 116 2.0 4.0 0.00 0.17 0.17 97 1008.7
20260510003035 41 146 0.0 4.0 0.00 0.17 0.17 97 1008.9
20260510002521 41 0 0.0 4.0 0.00 0.17 0.17 97 1008.8
20260510002019 41 121 0.0 7.0 0.00 0.17 0.17 97 1008.9
20260510001535 41 136 2.0 7.0 0.00 0.17 0.17 97 1008.8
20260510001020 41 57 1.0 6.0 0.01 0.17 0.17 97 1008.7
20260510000519 41 0 1.0 8.0 0.01 0.17 0.17 97 1008.7
20260510000045 41 148 1.0 8.0 0.01 0.17 0.17 97 1008.6
20260509235518 41 110 1.0 4.0 0.01 0.17 0.17 97 1008.5
20260509235018 41 57 1.0 4.0 0.01 0.17 0.17 97 1008.5
20260509234553 41 0 0.0 6.0 0.01 0.17 0.17 97 1008.4
20260509234019 41 92 1.0 6.0 0.01 0.17 0.17 97 1008.3
20260509233520 41 124 1.0 5.0 0.01 0.17 0.17 97 1008.4
20260509233036 41 103 0.0 5.0 0.01 0.17 0.17 97 1008.3
20260509232518 41 44 1.0 7.0 0.01 0.17 0.17 97 1008.4
20260509232019 41 121 2.0 7.0 0.01 0.17 0.17 97 1008.3
20260509231536 41 69 2.0 6.0 0.01 0.17 0.17 97 1008.3
20260509231021 41 0 1.0 6.0 0.00 0.16 0.16 97 1008.3